• In Czech Republic
  • List of Countries
  • For 7 days
  • Water Temperature
  • Satellite Maps
  • Weather Map
  • Weather Widgets
  • user-avatar
    Login

    Hourly Weather Whitehorse

    Today, 24 February, Saturday

    Time Temperature Precipitation Wind Pressure Humidity
    00:00 -18°C° 0 mm 1 mps 683 mmHg 93%
    01:00 -18°C° 0 mm 1 mps 682 mmHg 92%
    02:00 -19°C° 0 mm 1 mps 681 mmHg 91%
    03:00 -19°C° 0 mm 1 mps 681 mmHg 90%
    04:00 -21°C° 0 mm 2 mps 679 mmHg 90%
    05:00 -20°C° 0 mm 2 mps 678 mmHg 90%
    06:00 -20°C° 0 mm 2 mps 677 mmHg 90%
    07:00 -19°C° 0 mm 2 mps 676 mmHg 90%
    08:00 -18°C° 0 mm 2 mps 675 mmHg 90%
    09:00 -17°C° 0 mm 2 mps 675 mmHg 90%
    10:00 -16°C° 0.1 mm 2 mps 674 mmHg 90%
    11:00 -13°C° 0.1 mm 1 mps 673 mmHg 89%
    12:00 -12°C° 0.1 mm 1 mps 672 mmHg 89%
    13:00 -12°C° 0.2 mm 1 mps 672 mmHg 90%
    14:00 -11°C° 0.2 mm 1 mps 671 mmHg 90%
    15:00 -11°C° 0.2 mm 1 mps 671 mmHg 90%
    16:00 -12°C° 0.1 mm 1 mps 671 mmHg 92%
    17:00 -13°C° 0.1 mm 1 mps 671 mmHg 94%
    18:00 -13°C° 0.1 mm 1 mps 671 mmHg 95%
    19:00 -14°C° 0 mm 1 mps 671 mmHg 95%
    20:00 -14°C° 0 mm 1 mps 672 mmHg 95%
    21:00 -15°C° 0 mm 1 mps 672 mmHg 95%
    22:00 -16°C° 0 mm 1 mps 672 mmHg 95%
    23:00 -16°C° 0 mm 1 mps 673 mmHg 95%

    Tomorrow, 25 February, Sunday

    Time Temperature Precipitation Wind Pressure Humidity
    00:00 -17°C° 0 mm 1 mps 673 mmHg 94%
    01:00 -18°C° 0 mm 1 mps 673 mmHg 94%
    02:00 -18°C° 0 mm 1 mps 674 mmHg 93%
    03:00 -19°C° 0 mm 1 mps 674 mmHg 93%
    04:00 -19°C° 0 mm 1 mps 674 mmHg 92%
    05:00 -20°C° 0 mm 1 mps 675 mmHg 92%
    06:00 -20°C° 0 mm 1 mps 675 mmHg 91%
    07:00 -19°C° 0 mm 1 mps 676 mmHg 90%
    08:00 -18°C° 0 mm 1 mps 676 mmHg 89%
    09:00 -17°C° 0 mm 1 mps 677 mmHg 87%
    10:00 -15°C° 0 mm 1 mps 677 mmHg 84%
    11:00 -13°C° 0 mm 1 mps 678 mmHg 81%
    12:00 -12°C° 0 mm 1 mps 678 mmHg 78%
    13:00 -11°C° 0 mm 1 mps 678 mmHg 78%
    14:00 -11°C° 0 mm 1 mps 678 mmHg 78%
    15:00 -11°C° 0 mm 1 mps 678 mmHg 78%
    16:00 -13°C° 0 mm 1 mps 678 mmHg 82%
    17:00 -15°C° 0 mm 1 mps 678 mmHg 85%
    18:00 -17°C° 0 mm 1 mps 678 mmHg 89%
    19:00 -18°C° 0 mm 1 mps 678 mmHg 88%
    20:00 -18°C° 0 mm 1 mps 678 mmHg 86%
    21:00 -18°C° 0 mm 1 mps 678 mmHg 85%
    22:00 -21°C° 0 mm 2 mps 677 mmHg 84%
    23:00 -21°C° 0 mm 2 mps 677 mmHg 84%

    Day after tomorrow, 26 February, Monday

    Time Temperature Precipitation Wind Pressure Humidity
    00:00 -21°C° 0 mm 2 mps 676 mmHg 83%
    01:00 -21°C° 0 mm 2 mps 675 mmHg 84%
    02:00 -22°C° 0 mm 3 mps 674 mmHg 85%
    03:00 -22°C° 0 mm 3 mps 673 mmHg 85%
    04:00 -21°C° 0 mm 3 mps 672 mmHg 86%
    05:00 -19°C° 0 mm 3 mps 671 mmHg 86%
    06:00 -19°C° 0 mm 4 mps 670 mmHg 86%
    07:00 -19°C° 0 mm 4 mps 669 mmHg 87%
    08:00 -18°C° 0 mm 4 mps 668 mmHg 88%
    09:00 -17°C° 0 mm 4 mps 666 mmHg 88%
    10:00 -15°C° 0.1 mm 4 mps 665 mmHg 89%
    11:00 -14°C° 0.1 mm 4 mps 664 mmHg 89%
    12:00 -11°C° 0.1 mm 4 mps 663 mmHg 90%
    13:00 -11°C° 0.1 mm 5 mps 663 mmHg 87%
    14:00 -9°C° 0.1 mm 6 mps 662 mmHg 84%
    15:00 -8°C° 0.1 mm 7 mps 662 mmHg 81%
    16:00 -9°C° 0.2 mm 6 mps 662 mmHg 84%
    17:00 -8°C° 0.2 mm 5 mps 662 mmHg 87%
    18:00 -9°C° 0.2 mm 4 mps 662 mmHg 90%
    19:00 -9°C° 0.3 mm 3 mps 663 mmHg 91%
    20:00 -9°C° 0.3 mm 3 mps 664 mmHg 92%
    21:00 -9°C° 0.3 mm 2 mps 664 mmHg 93%
    22:00 -10°C° 0.1 mm 2 mps 665 mmHg 93%
    23:00 -12°C° 0.1 mm 2 mps 666 mmHg 93%

    27 February, Tuesday

    Time Temperature Precipitation Wind Pressure Humidity
    00:00 -11°C° 0.1 mm 1 mps 667 mmHg 93%
    01:00 -12°C° 0 mm 1 mps 668 mmHg 93%
    02:00 -13°C° 0 mm 1 mps 668 mmHg 93%
    03:00 -13°C° 0 mm 1 mps 669 mmHg 93%
    04:00 -14°C° 0 mm 1 mps 670 mmHg 94%
    05:00 -14°C° 0 mm 1 mps 671 mmHg 94%
    06:00 -14°C° 0 mm 1 mps 671 mmHg 95%
    07:00 -14°C° 0 mm 1 mps 672 mmHg 94%
    08:00 -14°C° 0 mm 1 mps 672 mmHg 94%
    09:00 -13°C° 0 mm 1 mps 673 mmHg 93%
    10:00 -13°C° 0.1 mm 1 mps 673 mmHg 91%
    11:00 -12°C° 0.1 mm 1 mps 673 mmHg 88%
    12:00 -13°C° 0.1 mm 2 mps 673 mmHg 85%
    13:00 -13°C° 0.2 mm 2 mps 672 mmHg 86%
    14:00 -11°C° 0.2 mm 1 mps 672 mmHg 88%
    15:00 -11°C° 0.2 mm 1 mps 672 mmHg 90%
    16:00 -14°C° 0.3 mm 2 mps 671 mmHg 92%
    17:00 -14°C° 0.3 mm 2 mps 671 mmHg 94%
    18:00 -15°C° 0.3 mm 2 mps 671 mmHg 96%
    19:00 -16°C° 0.2 mm 2 mps 671 mmHg 96%
    20:00 -16°C° 0.2 mm 2 mps 671 mmHg 96%
    21:00 -16°C° 0.2 mm 2 mps 672 mmHg 96%
    22:00 -17°C° 0.1 mm 2 mps 672 mmHg 96%
    23:00 -17°C° 0.1 mm 2 mps 673 mmHg 96%

    28 February, Wednesday

    Time Temperature Precipitation Wind Pressure Humidity
    00:00 -16°C° 0.1 mm 1 mps 673 mmHg 96%
    01:00 -17°C° 0.1 mm 1 mps 673 mmHg 96%
    02:00 -17°C° 0.1 mm 1 mps 674 mmHg 96%
    03:00 -18°C° 0.1 mm 1 mps 675 mmHg 96%
    04:00 -20°C° 0 mm 2 mps 675 mmHg 96%
    05:00 -21°C° 0 mm 2 mps 676 mmHg 96%
    06:00 -21°C° 0 mm 2 mps 676 mmHg 96%
    07:00 -21°C° 0 mm 2 mps 677 mmHg 95%
    08:00 -20°C° 0 mm 2 mps 678 mmHg 94%
    09:00 -22°C° 0 mm 3 mps 678 mmHg 93%
    10:00 -21°C° 0 mm 3 mps 679 mmHg 91%
    11:00 -19°C° 0 mm 4 mps 680 mmHg 89%
    12:00 -18°C° 0 mm 4 mps 680 mmHg 87%
    13:00 -19°C° 0 mm 5 mps 681 mmHg 86%
    14:00 -20°C° 0 mm 6 mps 681 mmHg 86%
    15:00 -20°C° 0 mm 6 mps 682 mmHg 85%
    16:00 -21°C° 0 mm 6 mps 683 mmHg 87%
    17:00 -22°C° 0 mm 6 mps 683 mmHg 88%
    18:00 -23°C° 0 mm 6 mps 684 mmHg 89%
    19:00 -24°C° 0 mm 5 mps 685 mmHg 90%
    20:00 -24°C° 0 mm 5 mps 685 mmHg 90%
    21:00 -25°C° 0 mm 5 mps 686 mmHg 90%
    22:00 -26°C° 0.1 mm 5 mps 686 mmHg 91%
    23:00 -26°C° 0.1 mm 5 mps 687 mmHg 92%

    1 March, Thursday

    Time Temperature Precipitation Wind Pressure Humidity
    00:00 -26°C° 0.1 mm 4 mps 687 mmHg 92%
    01:00 -27°C° 0.2 mm 5 mps 687 mmHg 93%
    02:00 -27°C° 0.2 mm 5 mps 688 mmHg 93%
    03:00 -27°C° 0.2 mm 5 mps 688 mmHg 94%
    04:00 -27°C° 0.2 mm 5 mps 688 mmHg 94%
    05:00 -27°C° 0.2 mm 5 mps 689 mmHg 94%
    06:00 -28°C° 0.2 mm 5 mps 689 mmHg 94%
    07:00 -28°C° 0.2 mm 5 mps 689 mmHg 94%
    08:00 -28°C° 0.2 mm 5 mps 690 mmHg 94%
    09:00 -28°C° 0.2 mm 5 mps 690 mmHg 94%
    10:00 -27°C° 0.2 mm 5 mps 690 mmHg 94%
    11:00 -26°C° 0.2 mm 5 mps 691 mmHg 93%
    12:00 -26°C° 0.2 mm 5 mps 691 mmHg 93%
    13:00 -26°C° 0.1 mm 5 mps 691 mmHg 93%
    14:00 -25°C° 0.1 mm 5 mps 691 mmHg 92%
    15:00 -25°C° 0.1 mm 5 mps 691 mmHg 92%
    16:00 -25°C° 0.1 mm 4 mps 692 mmHg 93%
    17:00 -25°C° 0.1 mm 4 mps 692 mmHg 94%
    18:00 -26°C° 0.1 mm 4 mps 692 mmHg 95%
    19:00 -26°C° 0.1 mm 4 mps 693 mmHg 95%
    20:00 -27°C° 0.1 mm 4 mps 693 mmHg 95%
    21:00 -26°C° 0.1 mm 3 mps 693 mmHg 95%
    22:00 -26°C° 0.1 mm 3 mps 693 mmHg 95%
    23:00 -27°C° 0.1 mm 3 mps 694 mmHg 96%
    Show more